Location: Ellen Observatory
(29.0040°N, 81.3000°W)
Time: 08:55:48
(UTC-04:00)

OTV 5 (USA 277) - Visible Passes

Search period start: 23 March 2019 00:00
Search period end: 02 April 2019 00:00
Orbit: 315 x 320 km, 54.5° (Epoch: 14 March)

Date Brightness Start Highest point End Pass type
(mag) Time Alt. Az. Time Alt. Az. Time Alt. Az.
28 Mar ? 06:27:39 10° S 06:29:49 22° SE 06:32:00 10° ENE visible
29 Mar ? 06:41:43 10° SW 06:44:24 81° NW 06:47:07 10° NE visible
30 Mar ? 05:25:28 12° ESE 05:25:28 12° ESE 05:26:09 10° E visible
31 Mar ? 05:40:17 34° E 05:40:17 34° E 05:42:09 10° NE visible
01 Apr ? 05:54:56 30° N 05:54:56 30° N 05:56:45 10° NNE visible
